Regional Weather Roundup
Issued by NWS

Home | Current Version | Previous Version | Graphics & Text | Print | Product List | Glossary On
Versions: 1 2 3 4 5 6 7 8 9 10 11 12 13 14 15 16 17 18 19 20 21 22 23 24 25 26 27
000
ASUS45 KBOU 190907
RWRCO

WEATHER ROUNDUP FOR COLORADO
NATIONAL WEATHER SERVICE DENVER/BOULDER CO
200 AM MST THU JAN 19 2017

NOTE: "FAIR" INDICATES FEW OR NO CLOUDS BELOW 12000 FEET WITH NO
SIGNIFICANT WEATHER AND/OR OBSTRUCTIONS TO VISIBILITY.

COZ001>005-013-030-031-191000-
...NORTHWEST COLORADO...

CITY           SKY/WX    TMP DP  RH WIND       PRES   REMARKS
CRAIG          FAIR       3  -3  76 CALM      29.92F
HAYDEN         FAIR      12   7  79 E12       29.90F WCI  -2
MEEKER         FAIR      13   9  84 NE5       29.91F WCI   5
MOUNT WERNER   NOT AVBL
STEAMBOAT SPGS FAIR       7   5  91 CALM      29.92F
WALDEN           N/A    N/A N/A N/A SE3       29.90S
$$

COZ006>008-011-191000-
...WEST CENTRAL VALLEYS...

CITY           SKY/WX    TMP DP  RH WIND       PRES   REMARKS
GRAND JUNCTION FAIR      28  26  92 E6        29.93F WCI  22
MONTROSE       FAIR      25  22  88 SE6       29.98S WCI  18
EAGLE          FAIR      11  10  96 SE5       30.00S WCI   3
RIFLE          FAIR      23  20  88 CALM      29.96F
DELTA          FAIR      28  26  89 CALM      29.97R
NUCLA          FAIR      28  23  80 E13       29.98F WCI  18
$$

COZ017>023-064>068-191000-
...SOUTHWEST COLORADO...

CITY           SKY/WX    TMP DP  RH WIND       PRES   REMARKS
DURANGO        FAIR      24  21  88 N3        29.93F
CORTEZ         FAIR      24  22  91 CALM      29.96F
PAGOSA SPRINGS CLOUDY    29  29  99 CALM      29.94R
TELLURIDE      FAIR      19  14  79 SE7       29.97S WCI  10
WOLF CREEK PAS   N/A     18  18 100 NW7       29.95S WCI   8
$$

COZ009-010-012-014-032>034-037-058>063-191000-
...CENTRAL COLORADO...

CITY           SKY/WX    TMP DP  RH WIND       PRES   REMARKS
ASPEN          FAIR       9   5  84 S8        29.92S WCI  -3
BUENA VISTA    FAIR      11   8  87 CALM      29.84S
COPPER MTN     FAIR      21   9  58 MISG      29.92S
BERTHOUD PASS  NOT AVBL
COTTONWOOD PAS FAIR      30  10  43 NW5       29.83S WCI  25
GUNNISON       FAIR      -4  -7  87 E3        30.01S
KREMMLING      MOCLDY     3   0  85 CALM      30.00S
LEADVILLE      FAIR      13   7  77 NE9       29.88S WCI   1
MONARCH PASS   FAIR      12  10  92 MISG      29.98S
SALIDA         FAIR      29  18  64 SW12G17   29.90S WCI  19
SUNLIGHT       FAIR      14  12  92 SW12      29.95S WCI   0
WILKERSON PASS NOT AVBL
$$

COZ069>075-191000-
...SAN LUIS VALLEY/SANGRE DE CRISTO MOUNTAINS...

CITY           SKY/WX    TMP DP  RH WIND       PRES   REMARKS
ALAMOSA        CLOUDY    23  21  92 W5        29.92F WCI  17
LA VETA PASS   CLOUDY    18  14  86 NE41G48   29.77F FOG     WCI  -5
SAGUACHE       CLOUDY    19  18  93 NW7       29.93F WCI  10
$$

COZ035-036-038>040-191000-
...NORTHERN COLORADO FRONT RANGE...

CITY           SKY/WX    TMP DP  RH WIND       PRES   REMARKS
DENVER INTL AP FAIR      33  14  45 SW13      29.66S WCI  24
DMNS CITY PARK   N/A     31  14  50 SE9       29.66S WCI  23
AURORA         PTCLDY    32  12  44 S10       29.67S WCI  23
FRONT RANGE AP FAIR      34  18  51 SW9       29.67S WCI  26
ERIE MUNI ARPT FAIR      20  17  88 CALM      29.67S
BOULDER MUN AP FAIR      32  18  55 CALM      29.66S
CENTENNIAL     FAIR      34  12  40 SW3       29.68R
BROOMFIELD     FAIR      41  16  36 CALM      29.67S
FORT COLLINS   FAIR      25  16  68 CALM      29.66F
LONGMONT       FAIR      25  18  76 CALM      29.68S
$$

COZ041-046-047-076>085-087-088-191000-
...PIKES PEAK/PALMER DIVIDE AND SOUTHERN FOOTHILLS...

CITY           SKY/WX    TMP DP  RH WIND       PRES   REMARKS
COLO. SPRINGS  FAIR      34   9  35 W5        29.67R WCI  30
A. F. ACADEMY  NOT AVBL
SCHRIEVER AFB  NOT AVBL
ELLICOTT       FAIR     N/A N/A N/A CALM      29.64F
FALCON         FAIR      38   4  24 N12       29.69R
FORT CARSON    NOT AVBL
LIMON          FAIR      19  15  84 CALM      29.65S
MONUMENT HILL  FAIR      27   7  43 W8        29.71R WCI  18
TRINIDAD       FAIR      18  11  74 W8        29.67S WCI   8
$$

COZ042>045-048>051-090-091-191000-
...NORTHEAST COLORADO...

CITY           SKY/WX    TMP DP  RH WIND       PRES   REMARKS
GREELEY ARPT   FAIR      23  22  96 CALM      29.67F
AKRON          FAIR      27  18  69 W13       29.65S WCI  16
BURLINGTON     FAIR      29  24  82 SW7       29.65S WCI  22
WRAY           NOT AVBL
STERLING       FAIR      21  19  93 SW3       29.66R
HOLYOKE        FAIR      19  14  79 W7        29.66S WCI  10
FORT MORGAN    FAIR      23  20  89 CALM      29.66S
$$

COZ086-089-092>099-191000-
...SOUTHEAST COLORADO...

CITY           SKY/WX    TMP DP  RH WIND       PRES   REMARKS
PUEBLO         FAIR      26  22  84 CALM      29.65S
LA JUNTA       FAIR      22  19  89 W10       29.66S WCI  11
LAMAR          MOCLDY    19  16  88 SW7       29.65S WCI  10
SPRINGFIELD      N/A     30  24  78 W12       29.62F WCI  20
$$




USA.gov is the U.S. government's official web portal to all federal, state and local government web resources and services.